Index of /20260411/WXO-DD/model_gdps/15km/12/132
Name Last modified Size Description
Parent Directory -
20260411T12Z_MSC_GDPS_AbsoluteVorticity_IsbL-0200_LatLon0.15_PT132H.grib2 2026-04-11 16:46 1.2M
20260411T12Z_MSC_GDPS_AbsoluteVorticity_IsbL-0250_LatLon0.15_PT132H.grib2 2026-04-11 16:46 1.3M
20260411T12Z_MSC_GDPS_AbsoluteVorticity_IsbL-0500_LatLon0.15_PT132H.grib2 2026-04-11 16:46 1.5M
20260411T12Z_MSC_GDPS_AbsoluteVorticity_IsbL-0700_LatLon0.15_PT132H.grib2 2026-04-11 16:46 1.3M
20260411T12Z_MSC_GDPS_AbsoluteVorticity_IsbL-0850_LatLon0.15_PT132H.grib2 2026-04-11 16:46 1.6M
20260411T12Z_MSC_GDPS_AirTemp-Max_AGL-2m_LatLon0.15_PT132H.grib2 2026-04-11 16:46 755K
20260411T12Z_MSC_GDPS_AirTemp-Min_AGL-2m_LatLon0.15_PT132H.grib2 2026-04-11 16:46 801K
20260411T12Z_MSC_GDPS_AirTemp_AGL-120m_LatLon0.15_PT132H.grib2 2026-04-11 16:46 916K
20260411T12Z_MSC_GDPS_AirTemp_AGL-2m_LatLon0.15_PT132H.grib2 2026-04-11 16:46 1.0M
20260411T12Z_MSC_GDPS_AirTemp_AGL-40m_LatLon0.15_PT132H.grib2 2026-04-11 16:46 938K
20260411T12Z_MSC_GDPS_AirTemp_AGL-80m_LatLon0.15_PT132H.grib2 2026-04-11 16:46 927K
20260411T12Z_MSC_GDPS_AirTemp_IsbL-0001_LatLon0.15_PT132H.grib2 2026-04-11 16:46 697K
20260411T12Z_MSC_GDPS_AirTemp_IsbL-0005_LatLon0.15_PT132H.grib2 2026-04-11 16:46 677K
20260411T12Z_MSC_GDPS_AirTemp_IsbL-0010_LatLon0.15_PT132H.grib2 2026-04-11 16:46 750K
20260411T12Z_MSC_GDPS_AirTemp_IsbL-0020_LatLon0.15_PT132H.grib2 2026-04-11 16:46 694K
20260411T12Z_MSC_GDPS_AirTemp_IsbL-0030_LatLon0.15_PT132H.grib2 2026-04-11 16:46 745K
20260411T12Z_MSC_GDPS_AirTemp_IsbL-0050_LatLon0.15_PT132H.grib2 2026-04-11 16:46 812K
20260411T12Z_MSC_GDPS_AirTemp_IsbL-0100_LatLon0.15_PT132H.grib2 2026-04-11 16:46 952K
20260411T12Z_MSC_GDPS_AirTemp_IsbL-0150_LatLon0.15_PT132H.grib2 2026-04-11 16:46 961K
20260411T12Z_MSC_GDPS_AirTemp_IsbL-0175_LatLon0.15_PT132H.grib2 2026-04-11 16:46 952K
20260411T12Z_MSC_GDPS_AirTemp_IsbL-0200_LatLon0.15_PT132H.grib2 2026-04-11 16:46 967K
20260411T12Z_MSC_GDPS_AirTemp_IsbL-0225_LatLon0.15_PT132H.grib2 2026-04-11 16:46 1.0M
20260411T12Z_MSC_GDPS_AirTemp_IsbL-0250_LatLon0.15_PT132H.grib2 2026-04-11 16:46 1.0M
20260411T12Z_MSC_GDPS_AirTemp_IsbL-0275_LatLon0.15_PT132H.grib2 2026-04-11 16:46 945K
20260411T12Z_MSC_GDPS_AirTemp_IsbL-0300_LatLon0.15_PT132H.grib2 2026-04-11 16:46 953K
20260411T12Z_MSC_GDPS_AirTemp_IsbL-0350_LatLon0.15_PT132H.grib2 2026-04-11 16:46 929K
20260411T12Z_MSC_GDPS_AirTemp_IsbL-0400_LatLon0.15_PT132H.grib2 2026-04-11 16:46 941K
20260411T12Z_MSC_GDPS_AirTemp_IsbL-0450_LatLon0.15_PT132H.grib2 2026-04-11 16:46 961K
20260411T12Z_MSC_GDPS_AirTemp_IsbL-0500_LatLon0.15_PT132H.grib2 2026-04-11 16:46 1.0M
20260411T12Z_MSC_GDPS_AirTemp_IsbL-0550_LatLon0.15_PT132H.grib2 2026-04-11 16:46 795K
20260411T12Z_MSC_GDPS_AirTemp_IsbL-0600_LatLon0.15_PT132H.grib2 2026-04-11 16:46 887K
20260411T12Z_MSC_GDPS_AirTemp_IsbL-0650_LatLon0.15_PT132H.grib2 2026-04-11 16:46 913K
20260411T12Z_MSC_GDPS_AirTemp_IsbL-0700_LatLon0.15_PT132H.grib2 2026-04-11 16:46 947K
20260411T12Z_MSC_GDPS_AirTemp_IsbL-0750_LatLon0.15_PT132H.grib2 2026-04-11 16:46 1.0M
20260411T12Z_MSC_GDPS_AirTemp_IsbL-0800_LatLon0.15_PT132H.grib2 2026-04-11 16:46 1.0M
20260411T12Z_MSC_GDPS_AirTemp_IsbL-0850_LatLon0.15_PT132H.grib2 2026-04-11 16:46 1.1M
20260411T12Z_MSC_GDPS_AirTemp_IsbL-0875_LatLon0.15_PT132H.grib2 2026-04-11 16:46 1.1M
20260411T12Z_MSC_GDPS_AirTemp_IsbL-0900_LatLon0.15_PT132H.grib2 2026-04-11 16:46 1.1M
20260411T12Z_MSC_GDPS_AirTemp_IsbL-0925_LatLon0.15_PT132H.grib2 2026-04-11 16:46 1.1M
20260411T12Z_MSC_GDPS_AirTemp_IsbL-0950_LatLon0.15_PT132H.grib2 2026-04-11 16:46 1.1M
20260411T12Z_MSC_GDPS_AirTemp_IsbL-0970_LatLon0.15_PT132H.grib2 2026-04-11 16:46 1.1M
20260411T12Z_MSC_GDPS_AirTemp_IsbL-0985_LatLon0.15_PT132H.grib2 2026-04-11 16:46 1.1M
20260411T12Z_MSC_GDPS_AirTemp_IsbL-1000_LatLon0.15_PT132H.grib2 2026-04-11 16:46 1.1M
20260411T12Z_MSC_GDPS_AirTemp_IsbL-1015_LatLon0.15_PT132H.grib2 2026-04-11 16:46 1.1M
20260411T12Z_MSC_GDPS_Albedo_Sfc_LatLon0.15_PT132H.grib2 2026-04-11 16:46 247K
20260411T12Z_MSC_GDPS_CAPE_Sfc_LatLon0.15_PT132H.grib2 2026-04-11 16:46 3.8M
20260411T12Z_MSC_GDPS_CIN_Sfc_LatLon0.15_PT132H.grib2 2026-04-11 16:46 2.8M
20260411T12Z_MSC_GDPS_CloudWater_EAtm_LatLon0.15_PT132H.grib2 2026-04-11 16:46 525K
20260411T12Z_MSC_GDPS_ConvectivePrecip-Accum_Sfc_LatLon0.15_PT132H.grib2 2026-04-11 16:46 3.2M
20260411T12Z_MSC_GDPS_DewPointDepression_AGL-2m_LatLon0.15_PT132H.grib2 2026-04-11 16:46 748K
20260411T12Z_MSC_GDPS_DewPointDepression_IsbL-0010_LatLon0.15_PT132H.grib2 2026-04-11 16:46 8.3K
20260411T12Z_MSC_GDPS_DewPointDepression_IsbL-0020_LatLon0.15_PT132H.grib2 2026-04-11 16:46 52K
20260411T12Z_MSC_GDPS_DewPointDepression_IsbL-0030_LatLon0.15_PT132H.grib2 2026-04-11 16:46 72K
20260411T12Z_MSC_GDPS_DewPointDepression_IsbL-0050_LatLon0.15_PT132H.grib2 2026-04-11 16:46 362K
20260411T12Z_MSC_GDPS_DewPointDepression_IsbL-0100_LatLon0.15_PT132H.grib2 2026-04-11 16:46 376K
20260411T12Z_MSC_GDPS_DewPointDepression_IsbL-0150_LatLon0.15_PT132H.grib2 2026-04-11 16:46 451K
20260411T12Z_MSC_GDPS_DewPointDepression_IsbL-0175_LatLon0.15_PT132H.grib2 2026-04-11 16:46 533K
20260411T12Z_MSC_GDPS_DewPointDepression_IsbL-0200_LatLon0.15_PT132H.grib2 2026-04-11 16:46 617K
20260411T12Z_MSC_GDPS_DewPointDepression_IsbL-0225_LatLon0.15_PT132H.grib2 2026-04-11 16:46 756K
20260411T12Z_MSC_GDPS_DewPointDepression_IsbL-0250_LatLon0.15_PT132H.grib2 2026-04-11 16:46 866K
20260411T12Z_MSC_GDPS_DewPointDepression_IsbL-0275_LatLon0.15_PT132H.grib2 2026-04-11 16:46 887K
20260411T12Z_MSC_GDPS_DewPointDepression_IsbL-0300_LatLon0.15_PT132H.grib2 2026-04-11 16:46 926K
20260411T12Z_MSC_GDPS_DewPointDepression_IsbL-0350_LatLon0.15_PT132H.grib2 2026-04-11 16:46 958K
20260411T12Z_MSC_GDPS_DewPointDepression_IsbL-0400_LatLon0.15_PT132H.grib2 2026-04-11 16:46 1.0M
20260411T12Z_MSC_GDPS_DewPointDepression_IsbL-0450_LatLon0.15_PT132H.grib2 2026-04-11 16:46 1.0M
20260411T12Z_MSC_GDPS_DewPointDepression_IsbL-0500_LatLon0.15_PT132H.grib2 2026-04-11 16:46 1.0M
20260411T12Z_MSC_GDPS_DewPointDepression_IsbL-0550_LatLon0.15_PT132H.grib2 2026-04-11 16:46 1.0M
20260411T12Z_MSC_GDPS_DewPointDepression_IsbL-0600_LatLon0.15_PT132H.grib2 2026-04-11 16:46 1.1M
20260411T12Z_MSC_GDPS_DewPointDepression_IsbL-0650_LatLon0.15_PT132H.grib2 2026-04-11 16:46 1.1M
20260411T12Z_MSC_GDPS_DewPointDepression_IsbL-0700_LatLon0.15_PT132H.grib2 2026-04-11 16:46 1.1M
20260411T12Z_MSC_GDPS_DewPointDepression_IsbL-0750_LatLon0.15_PT132H.grib2 2026-04-11 16:46 1.1M
20260411T12Z_MSC_GDPS_DewPointDepression_IsbL-0800_LatLon0.15_PT132H.grib2 2026-04-11 16:46 1.2M
20260411T12Z_MSC_GDPS_DewPointDepression_IsbL-0850_LatLon0.15_PT132H.grib2 2026-04-11 16:46 1.1M
20260411T12Z_MSC_GDPS_DewPointDepression_IsbL-0875_LatLon0.15_PT132H.grib2 2026-04-11 16:46 1.1M
20260411T12Z_MSC_GDPS_DewPointDepression_IsbL-0900_LatLon0.15_PT132H.grib2 2026-04-11 16:46 1.1M
20260411T12Z_MSC_GDPS_DewPointDepression_IsbL-0925_LatLon0.15_PT132H.grib2 2026-04-11 16:46 1.0M
20260411T12Z_MSC_GDPS_DewPointDepression_IsbL-0950_LatLon0.15_PT132H.grib2 2026-04-11 16:46 1.0M
20260411T12Z_MSC_GDPS_DewPointDepression_IsbL-0970_LatLon0.15_PT132H.grib2 2026-04-11 16:46 1.0M
20260411T12Z_MSC_GDPS_DewPointDepression_IsbL-0985_LatLon0.15_PT132H.grib2 2026-04-11 16:46 1.0M
20260411T12Z_MSC_GDPS_DewPointDepression_IsbL-1000_LatLon0.15_PT132H.grib2 2026-04-11 16:46 970K
20260411T12Z_MSC_GDPS_DewPointDepression_IsbL-1015_LatLon0.15_PT132H.grib2 2026-04-11 16:46 912K
20260411T12Z_MSC_GDPS_DewPoint_AGL-2m_LatLon0.15_PT132H.grib2 2026-04-11 16:46 611K
20260411T12Z_MSC_GDPS_DownwardLongwaveRadiationFlux-Accum_Sfc_LatLon0.15_PT132H.grib2 2026-04-11 16:46 819K
20260411T12Z_MSC_GDPS_DownwardShortwaveRadiationFlux-Accum_NTAtm_LatLon0.15_PT132H.grib2 2026-04-11 16:46 214K
20260411T12Z_MSC_GDPS_DownwardShortwaveRadiationFlux-Accum_Sfc_LatLon0.15_PT132H.grib2 2026-04-11 16:46 1.0M
20260411T12Z_MSC_GDPS_FreezingRain-Accum12h_Sfc_LatLon0.15_PT132H.grib2 2026-04-11 16:46 68K
20260411T12Z_MSC_GDPS_FreezingRain-Accum1h_Sfc_LatLon0.15_PT132H.grib2 2026-04-11 16:46 39K
20260411T12Z_MSC_GDPS_FreezingRain-Accum24h_Sfc_LatLon0.15_PT132H.grib2 2026-04-11 16:46 86K
20260411T12Z_MSC_GDPS_FreezingRain-Accum3h_Sfc_LatLon0.15_PT132H.grib2 2026-04-11 16:46 45K
20260411T12Z_MSC_GDPS_FreezingRain-Accum6h_Sfc_LatLon0.15_PT132H.grib2 2026-04-11 16:46 67K
20260411T12Z_MSC_GDPS_FreezingRain-Accum_Sfc_LatLon0.15_PT132H.grib2 2026-04-11 16:46 240K
20260411T12Z_MSC_GDPS_GeopotentialHeight_IsbL-0001_LatLon0.15_PT132H.grib2 2026-04-11 16:46 531K
20260411T12Z_MSC_GDPS_GeopotentialHeight_IsbL-0005_LatLon0.15_PT132H.grib2 2026-04-11 16:46 491K
20260411T12Z_MSC_GDPS_GeopotentialHeight_IsbL-0010_LatLon0.15_PT132H.grib2 2026-04-11 16:46 427K
20260411T12Z_MSC_GDPS_GeopotentialHeight_IsbL-0020_LatLon0.15_PT132H.grib2 2026-04-11 16:46 572K
20260411T12Z_MSC_GDPS_GeopotentialHeight_IsbL-0030_LatLon0.15_PT132H.grib2 2026-04-11 16:46 577K
20260411T12Z_MSC_GDPS_GeopotentialHeight_IsbL-0050_LatLon0.15_PT132H.grib2 2026-04-11 16:46 510K
20260411T12Z_MSC_GDPS_GeopotentialHeight_IsbL-0100_LatLon0.15_PT132H.grib2 2026-04-11 16:46 616K
20260411T12Z_MSC_GDPS_GeopotentialHeight_IsbL-0150_LatLon0.15_PT132H.grib2 2026-04-11 16:46 629K
20260411T12Z_MSC_GDPS_GeopotentialHeight_IsbL-0175_LatLon0.15_PT132H.grib2 2026-04-11 16:46 631K
20260411T12Z_MSC_GDPS_GeopotentialHeight_IsbL-0200_LatLon0.15_PT132H.grib2 2026-04-11 16:46 633K
20260411T12Z_MSC_GDPS_GeopotentialHeight_IsbL-0225_LatLon0.15_PT132H.grib2 2026-04-11 16:46 636K
20260411T12Z_MSC_GDPS_GeopotentialHeight_IsbL-0250_LatLon0.15_PT132H.grib2 2026-04-11 16:46 640K
20260411T12Z_MSC_GDPS_GeopotentialHeight_IsbL-0275_LatLon0.15_PT132H.grib2 2026-04-11 16:46 639K
20260411T12Z_MSC_GDPS_GeopotentialHeight_IsbL-0300_LatLon0.15_PT132H.grib2 2026-04-11 16:46 638K
20260411T12Z_MSC_GDPS_GeopotentialHeight_IsbL-0350_LatLon0.15_PT132H.grib2 2026-04-11 16:46 627K
20260411T12Z_MSC_GDPS_GeopotentialHeight_IsbL-0400_LatLon0.15_PT132H.grib2 2026-04-11 16:46 618K
20260411T12Z_MSC_GDPS_GeopotentialHeight_IsbL-0450_LatLon0.15_PT132H.grib2 2026-04-11 16:46 539K
20260411T12Z_MSC_GDPS_GeopotentialHeight_IsbL-0500_LatLon0.15_PT132H.grib2 2026-04-11 16:46 529K
20260411T12Z_MSC_GDPS_GeopotentialHeight_IsbL-0550_LatLon0.15_PT132H.grib2 2026-04-11 16:46 689K
20260411T12Z_MSC_GDPS_GeopotentialHeight_IsbL-0600_LatLon0.15_PT132H.grib2 2026-04-11 16:46 679K
20260411T12Z_MSC_GDPS_GeopotentialHeight_IsbL-0650_LatLon0.15_PT132H.grib2 2026-04-11 16:46 676K
20260411T12Z_MSC_GDPS_GeopotentialHeight_IsbL-0700_LatLon0.15_PT132H.grib2 2026-04-11 16:46 673K
20260411T12Z_MSC_GDPS_GeopotentialHeight_IsbL-0750_LatLon0.15_PT132H.grib2 2026-04-11 16:46 677K
20260411T12Z_MSC_GDPS_GeopotentialHeight_IsbL-0800_LatLon0.15_PT132H.grib2 2026-04-11 16:46 692K
20260411T12Z_MSC_GDPS_GeopotentialHeight_IsbL-0850_LatLon0.15_PT132H.grib2 2026-04-11 16:46 701K
20260411T12Z_MSC_GDPS_GeopotentialHeight_IsbL-0875_LatLon0.15_PT132H.grib2 2026-04-11 16:46 712K
20260411T12Z_MSC_GDPS_GeopotentialHeight_IsbL-0900_LatLon0.15_PT132H.grib2 2026-04-11 16:46 717K
20260411T12Z_MSC_GDPS_GeopotentialHeight_IsbL-0925_LatLon0.15_PT132H.grib2 2026-04-11 16:46 724K
20260411T12Z_MSC_GDPS_GeopotentialHeight_IsbL-0950_LatLon0.15_PT132H.grib2 2026-04-11 16:46 734K
20260411T12Z_MSC_GDPS_GeopotentialHeight_IsbL-0970_LatLon0.15_PT132H.grib2 2026-04-11 16:46 744K
20260411T12Z_MSC_GDPS_GeopotentialHeight_IsbL-0985_LatLon0.15_PT132H.grib2 2026-04-11 16:46 760K
20260411T12Z_MSC_GDPS_GeopotentialHeight_IsbL-1000_LatLon0.15_PT132H.grib2 2026-04-11 16:46 780K
20260411T12Z_MSC_GDPS_GeopotentialHeight_IsbL-1015_LatLon0.15_PT132H.grib2 2026-04-11 16:46 803K
20260411T12Z_MSC_GDPS_Humidex_Sfc_LatLon0.15_PT132H.grib2 2026-04-11 16:46 5.3M
20260411T12Z_MSC_GDPS_IcePellets-Accum12h_Sfc_LatLon0.15_PT132H.grib2 2026-04-11 16:46 26K
20260411T12Z_MSC_GDPS_IcePellets-Accum1h_Sfc_LatLon0.15_PT132H.grib2 2026-04-11 16:46 7.7K
20260411T12Z_MSC_GDPS_IcePellets-Accum24h_Sfc_LatLon0.15_PT132H.grib2 2026-04-11 16:46 40K
20260411T12Z_MSC_GDPS_IcePellets-Accum3h_Sfc_LatLon0.15_PT132H.grib2 2026-04-11 16:46 7.9K
20260411T12Z_MSC_GDPS_IcePellets-Accum6h_Sfc_LatLon0.15_PT132H.grib2 2026-04-11 16:46 15K
20260411T12Z_MSC_GDPS_IcePellets-Accum_Sfc_LatLon0.15_PT132H.grib2 2026-04-11 16:46 134K
20260411T12Z_MSC_GDPS_KIndex_Sfc_LatLon0.15_PT132H.grib2 2026-04-11 16:46 6.5M
20260411T12Z_MSC_GDPS_LatentHeatNetFlux_Sfc_LatLon0.15_PT132H.grib2 2026-04-11 16:46 631K
20260411T12Z_MSC_GDPS_LiftedIndex-MU-VT_IsbL-0500_LatLon0.15_PT132H.grib2 2026-04-11 16:46 5.3M
20260411T12Z_MSC_GDPS_NetLongwaveRadiationFlux-Accum_Sfc_LatLon0.15_PT132H.grib2 2026-04-11 16:46 1.0M
20260411T12Z_MSC_GDPS_NetShortwaveRadiationFlux-Accum_Sfc_LatLon0.15_PT132H.grib2 2026-04-11 16:46 1.0M
20260411T12Z_MSC_GDPS_O3MixingRatio_LatLon0.15_PT132H.grib2 2026-04-11 17:06 2.3M
20260411T12Z_MSC_GDPS_O3_EAtm_LatLon0.15_PT132H.grib2 2026-04-11 17:06 2.1M
20260411T12Z_MSC_GDPS_PlanetaryBoundaryLayerHeight_Sfc_LatLon0.15_PT132H.grib2 2026-04-11 16:46 2.4M
20260411T12Z_MSC_GDPS_Precip-Accum12h_Sfc_LatLon0.15_PT132H.grib2 2026-04-11 16:46 4.3M
20260411T12Z_MSC_GDPS_Precip-Accum1h_Sfc_LatLon0.15_PT132H.grib2 2026-04-11 16:46 3.2M
20260411T12Z_MSC_GDPS_Precip-Accum24h_Sfc_LatLon0.15_PT132H.grib2 2026-04-11 16:46 4.5M
20260411T12Z_MSC_GDPS_Precip-Accum3h_Sfc_LatLon0.15_PT132H.grib2 2026-04-11 16:46 3.4M
20260411T12Z_MSC_GDPS_Precip-Accum6h_Sfc_LatLon0.15_PT132H.grib2 2026-04-11 16:46 3.8M
20260411T12Z_MSC_GDPS_Precip-Accum_Sfc_LatLon0.15_PT132H.grib2 2026-04-11 16:46 4.8M
20260411T12Z_MSC_GDPS_PrecipRate_Sfc_LatLon0.15_PT132H.grib2 2026-04-11 16:46 2.9M
20260411T12Z_MSC_GDPS_PrecipType-Instant_Sfc_LatLon0.15_PT132H.grib2 2026-04-11 16:46 1.5M
20260411T12Z_MSC_GDPS_Pressure_MSL_LatLon0.15_PT132H.grib2 2026-04-11 16:46 716K
20260411T12Z_MSC_GDPS_Pressure_PVU-1.5_LatLon0.15_PT132H.grib2 2026-04-11 16:46 5.8M
20260411T12Z_MSC_GDPS_Pressure_PVU-1_LatLon0.15_PT132H.grib2 2026-04-11 16:46 6.0M
20260411T12Z_MSC_GDPS_Pressure_PVU-2_LatLon0.15_PT132H.grib2 2026-04-11 16:46 6.0M
20260411T12Z_MSC_GDPS_Pressure_Sfc_LatLon0.15_PT132H.grib2 2026-04-11 16:46 1.1M
20260411T12Z_MSC_GDPS_RadiativeTemp_Sfc_LatLon0.15_PT132H.grib2 2026-04-11 16:46 659K
20260411T12Z_MSC_GDPS_Rain-Accum12h_Sfc_LatLon0.15_PT132H.grib2 2026-04-11 16:46 2.8M
20260411T12Z_MSC_GDPS_Rain-Accum1h_Sfc_LatLon0.15_PT132H.grib2 2026-04-11 16:46 1.6M
20260411T12Z_MSC_GDPS_Rain-Accum24h_Sfc_LatLon0.15_PT132H.grib2 2026-04-11 16:46 3.1M
20260411T12Z_MSC_GDPS_Rain-Accum3h_Sfc_LatLon0.15_PT132H.grib2 2026-04-11 16:46 1.8M
20260411T12Z_MSC_GDPS_Rain-Accum6h_Sfc_LatLon0.15_PT132H.grib2 2026-04-11 16:46 2.4M
20260411T12Z_MSC_GDPS_Rain-Accum_Sfc_LatLon0.15_PT132H.grib2 2026-04-11 16:46 3.8M
20260411T12Z_MSC_GDPS_RelativeHumidity_AGL-2m_LatLon0.15_PT132H.grib2 2026-04-11 16:46 1.1M
20260411T12Z_MSC_GDPS_RelativeHumidity_IsbL-0010_LatLon0.15_PT132H.grib2 2026-04-11 16:46 239K
20260411T12Z_MSC_GDPS_RelativeHumidity_IsbL-0020_LatLon0.15_PT132H.grib2 2026-04-11 16:46 363K
20260411T12Z_MSC_GDPS_RelativeHumidity_IsbL-0030_LatLon0.15_PT132H.grib2 2026-04-11 16:46 378K
20260411T12Z_MSC_GDPS_RelativeHumidity_IsbL-0050_LatLon0.15_PT132H.grib2 2026-04-11 16:46 321K
20260411T12Z_MSC_GDPS_RelativeHumidity_IsbL-0100_LatLon0.15_PT132H.grib2 2026-04-11 16:46 485K
20260411T12Z_MSC_GDPS_RelativeHumidity_IsbL-0150_LatLon0.15_PT132H.grib2 2026-04-11 16:46 650K
20260411T12Z_MSC_GDPS_RelativeHumidity_IsbL-0175_LatLon0.15_PT132H.grib2 2026-04-11 16:46 771K
20260411T12Z_MSC_GDPS_RelativeHumidity_IsbL-0200_LatLon0.15_PT132H.grib2 2026-04-11 16:46 681K
20260411T12Z_MSC_GDPS_RelativeHumidity_IsbL-0225_LatLon0.15_PT132H.grib2 2026-04-11 16:46 775K
20260411T12Z_MSC_GDPS_RelativeHumidity_IsbL-0250_LatLon0.15_PT132H.grib2 2026-04-11 16:46 868K
20260411T12Z_MSC_GDPS_RelativeHumidity_IsbL-0275_LatLon0.15_PT132H.grib2 2026-04-11 16:46 895K
20260411T12Z_MSC_GDPS_RelativeHumidity_IsbL-0300_LatLon0.15_PT132H.grib2 2026-04-11 16:46 940K
20260411T12Z_MSC_GDPS_RelativeHumidity_IsbL-0350_LatLon0.15_PT132H.grib2 2026-04-11 16:46 963K
20260411T12Z_MSC_GDPS_RelativeHumidity_IsbL-0400_LatLon0.15_PT132H.grib2 2026-04-11 16:46 1.0M
20260411T12Z_MSC_GDPS_RelativeHumidity_IsbL-0450_LatLon0.15_PT132H.grib2 2026-04-11 16:46 1.0M
20260411T12Z_MSC_GDPS_RelativeHumidity_IsbL-0500_LatLon0.15_PT132H.grib2 2026-04-11 16:46 1.0M
20260411T12Z_MSC_GDPS_RelativeHumidity_IsbL-0550_LatLon0.15_PT132H.grib2 2026-04-11 16:46 1.0M
20260411T12Z_MSC_GDPS_RelativeHumidity_IsbL-0600_LatLon0.15_PT132H.grib2 2026-04-11 16:46 1.1M
20260411T12Z_MSC_GDPS_RelativeHumidity_IsbL-0650_LatLon0.15_PT132H.grib2 2026-04-11 16:46 1.1M
20260411T12Z_MSC_GDPS_RelativeHumidity_IsbL-0700_LatLon0.15_PT132H.grib2 2026-04-11 16:46 1.1M
20260411T12Z_MSC_GDPS_RelativeHumidity_IsbL-0750_LatLon0.15_PT132H.grib2 2026-04-11 16:46 1.2M
20260411T12Z_MSC_GDPS_RelativeHumidity_IsbL-0800_LatLon0.15_PT132H.grib2 2026-04-11 16:46 1.2M
20260411T12Z_MSC_GDPS_RelativeHumidity_IsbL-0850_LatLon0.15_PT132H.grib2 2026-04-11 16:46 1.3M
20260411T12Z_MSC_GDPS_RelativeHumidity_IsbL-0875_LatLon0.15_PT132H.grib2 2026-04-11 16:46 1.3M
20260411T12Z_MSC_GDPS_RelativeHumidity_IsbL-0900_LatLon0.15_PT132H.grib2 2026-04-11 16:46 1.2M
20260411T12Z_MSC_GDPS_RelativeHumidity_IsbL-0925_LatLon0.15_PT132H.grib2 2026-04-11 16:46 1.2M
20260411T12Z_MSC_GDPS_RelativeHumidity_IsbL-0950_LatLon0.15_PT132H.grib2 2026-04-11 16:46 1.2M
20260411T12Z_MSC_GDPS_RelativeHumidity_IsbL-0970_LatLon0.15_PT132H.grib2 2026-04-11 16:46 1.2M
20260411T12Z_MSC_GDPS_RelativeHumidity_IsbL-0985_LatLon0.15_PT132H.grib2 2026-04-11 16:46 1.2M
20260411T12Z_MSC_GDPS_RelativeHumidity_IsbL-1000_LatLon0.15_PT132H.grib2 2026-04-11 16:46 1.1M
20260411T12Z_MSC_GDPS_RelativeHumidity_IsbL-1015_LatLon0.15_PT132H.grib2 2026-04-11 16:46 1.1M
20260411T12Z_MSC_GDPS_RelativeVorticity_IsbL-0200_LatLon0.15_PT132H.grib2 2026-04-11 16:46 1.2M
20260411T12Z_MSC_GDPS_RelativeVorticity_IsbL-0250_LatLon0.15_PT132H.grib2 2026-04-11 16:46 1.3M
20260411T12Z_MSC_GDPS_RelativeVorticity_IsbL-0500_LatLon0.15_PT132H.grib2 2026-04-11 16:46 1.5M
20260411T12Z_MSC_GDPS_RelativeVorticity_IsbL-0700_LatLon0.15_PT132H.grib2 2026-04-11 16:46 1.3M
20260411T12Z_MSC_GDPS_RelativeVorticity_IsbL-0850_LatLon0.15_PT132H.grib2 2026-04-11 16:46 1.6M
20260411T12Z_MSC_GDPS_Runoff-Accum_Sfc_LatLon0.15_PT132H.grib2 2026-04-11 16:46 119K
20260411T12Z_MSC_GDPS_SensibleHeatNetFlux_Sfc_LatLon0.15_PT132H.grib2 2026-04-11 16:46 591K
20260411T12Z_MSC_GDPS_ShowalterIndex_IsbL-0500_LatLon0.15_PT132H.grib2 2026-04-11 16:46 6.2M
20260411T12Z_MSC_GDPS_Snow-Accum12h_Sfc_LatLon0.15_PT132H.grib2 2026-04-11 16:46 1.4M
20260411T12Z_MSC_GDPS_Snow-Accum1h_Sfc_LatLon0.15_PT132H.grib2 2026-04-11 16:46 1.1M
20260411T12Z_MSC_GDPS_Snow-Accum24h_Sfc_LatLon0.15_PT132H.grib2 2026-04-11 16:46 1.4M
20260411T12Z_MSC_GDPS_Snow-Accum3h_Sfc_LatLon0.15_PT132H.grib2 2026-04-11 16:46 1.1M
20260411T12Z_MSC_GDPS_Snow-Accum6h_Sfc_LatLon0.15_PT132H.grib2 2026-04-11 16:46 1.5M
20260411T12Z_MSC_GDPS_Snow-Accum_Sfc_LatLon0.15_PT132H.grib2 2026-04-11 16:46 2.0M
20260411T12Z_MSC_GDPS_SnowDensity_Sfc_LatLon0.15_PT132H.grib2 2026-04-11 16:46 270K
20260411T12Z_MSC_GDPS_SnowDepth_Sfc_LatLon0.15_PT132H.grib2 2026-04-11 16:46 1.8M
20260411T12Z_MSC_GDPS_SoilTemp_DBS-0to10cm_LatLon0.15_PT132H.grib2 2026-04-11 16:46 511K
20260411T12Z_MSC_GDPS_SoilTemp_Sfc_LatLon0.15_PT132H.grib2 2026-04-11 16:46 576K
20260411T12Z_MSC_GDPS_SoilVolumetricIceContent_Sfc_LatLon0.15_PT132H.grib2 2026-04-11 16:46 225K
20260411T12Z_MSC_GDPS_SoilVolumetricWaterContent_DBS-0to10cm_LatLon0.15_PT132H.grib2 2026-04-11 16:46 551K
20260411T12Z_MSC_GDPS_SoilVolumetricWaterContent_DBS-0to1cm_LatLon0.15_PT132H.grib2 2026-04-11 16:46 651K
20260411T12Z_MSC_GDPS_SpecificHumidity_AGL-120m_LatLon0.15_PT132H.grib2 2026-04-11 16:46 1.1M
20260411T12Z_MSC_GDPS_SpecificHumidity_AGL-2m_LatLon0.15_PT132H.grib2 2026-04-11 16:46 1.2M
20260411T12Z_MSC_GDPS_SpecificHumidity_AGL-40m_LatLon0.15_PT132H.grib2 2026-04-11 16:46 1.1M
20260411T12Z_MSC_GDPS_SpecificHumidity_AGL-80m_LatLon0.15_PT132H.grib2 2026-04-11 16:46 1.1M
20260411T12Z_MSC_GDPS_SpecificHumidity_IsbL-0001_LatLon0.15_PT132H.grib2 2026-04-11 16:46 1.1M
20260411T12Z_MSC_GDPS_SpecificHumidity_IsbL-0005_LatLon0.15_PT132H.grib2 2026-04-11 16:46 1.1M
20260411T12Z_MSC_GDPS_SpecificHumidity_IsbL-0010_LatLon0.15_PT132H.grib2 2026-04-11 16:46 1.2M
20260411T12Z_MSC_GDPS_SpecificHumidity_IsbL-0020_LatLon0.15_PT132H.grib2 2026-04-11 16:46 1.3M
20260411T12Z_MSC_GDPS_SpecificHumidity_IsbL-0030_LatLon0.15_PT132H.grib2 2026-04-11 16:46 1.6M
20260411T12Z_MSC_GDPS_SpecificHumidity_IsbL-0050_LatLon0.15_PT132H.grib2 2026-04-11 16:46 1.3M
20260411T12Z_MSC_GDPS_SpecificHumidity_IsbL-0100_LatLon0.15_PT132H.grib2 2026-04-11 16:46 1.3M
20260411T12Z_MSC_GDPS_SpecificHumidity_IsbL-0150_LatLon0.15_PT132H.grib2 2026-04-11 16:46 1.3M
20260411T12Z_MSC_GDPS_SpecificHumidity_IsbL-0175_LatLon0.15_PT132H.grib2 2026-04-11 16:46 1.3M
20260411T12Z_MSC_GDPS_SpecificHumidity_IsbL-0200_LatLon0.15_PT132H.grib2 2026-04-11 16:46 1.0M
20260411T12Z_MSC_GDPS_SpecificHumidity_IsbL-0225_LatLon0.15_PT132H.grib2 2026-04-11 16:46 1.2M
20260411T12Z_MSC_GDPS_SpecificHumidity_IsbL-0250_LatLon0.15_PT132H.grib2 2026-04-11 16:46 1.2M
20260411T12Z_MSC_GDPS_SpecificHumidity_IsbL-0275_LatLon0.15_PT132H.grib2 2026-04-11 16:46 1.1M
20260411T12Z_MSC_GDPS_SpecificHumidity_IsbL-0300_LatLon0.15_PT132H.grib2 2026-04-11 16:46 1.2M
20260411T12Z_MSC_GDPS_SpecificHumidity_IsbL-0350_LatLon0.15_PT132H.grib2 2026-04-11 16:46 1.2M
20260411T12Z_MSC_GDPS_SpecificHumidity_IsbL-0400_LatLon0.15_PT132H.grib2 2026-04-11 16:46 1.4M
20260411T12Z_MSC_GDPS_SpecificHumidity_IsbL-0450_LatLon0.15_PT132H.grib2 2026-04-11 16:46 1.3M
20260411T12Z_MSC_GDPS_SpecificHumidity_IsbL-0500_LatLon0.15_PT132H.grib2 2026-04-11 16:46 1.4M
20260411T12Z_MSC_GDPS_SpecificHumidity_IsbL-0550_LatLon0.15_PT132H.grib2 2026-04-11 16:46 1.6M
20260411T12Z_MSC_GDPS_SpecificHumidity_IsbL-0600_LatLon0.15_PT132H.grib2 2026-04-11 16:46 1.4M
20260411T12Z_MSC_GDPS_SpecificHumidity_IsbL-0650_LatLon0.15_PT132H.grib2 2026-04-11 16:46 1.5M
20260411T12Z_MSC_GDPS_SpecificHumidity_IsbL-0700_LatLon0.15_PT132H.grib2 2026-04-11 16:46 1.6M
20260411T12Z_MSC_GDPS_SpecificHumidity_IsbL-0750_LatLon0.15_PT132H.grib2 2026-04-11 16:46 1.7M
20260411T12Z_MSC_GDPS_SpecificHumidity_IsbL-0800_LatLon0.15_PT132H.grib2 2026-04-11 16:46 1.8M
20260411T12Z_MSC_GDPS_SpecificHumidity_IsbL-0850_LatLon0.15_PT132H.grib2 2026-04-11 16:46 1.9M
20260411T12Z_MSC_GDPS_SpecificHumidity_IsbL-0875_LatLon0.15_PT132H.grib2 2026-04-11 16:46 1.9M
20260411T12Z_MSC_GDPS_SpecificHumidity_IsbL-0900_LatLon0.15_PT132H.grib2 2026-04-11 16:46 1.9M
20260411T12Z_MSC_GDPS_SpecificHumidity_IsbL-0925_LatLon0.15_PT132H.grib2 2026-04-11 16:46 1.9M
20260411T12Z_MSC_GDPS_SpecificHumidity_IsbL-0950_LatLon0.15_PT132H.grib2 2026-04-11 16:46 1.9M
20260411T12Z_MSC_GDPS_SpecificHumidity_IsbL-0970_LatLon0.15_PT132H.grib2 2026-04-11 16:46 1.5M
20260411T12Z_MSC_GDPS_SpecificHumidity_IsbL-0985_LatLon0.15_PT132H.grib2 2026-04-11 16:46 1.5M
20260411T12Z_MSC_GDPS_SpecificHumidity_IsbL-1000_LatLon0.15_PT132H.grib2 2026-04-11 16:46 1.5M
20260411T12Z_MSC_GDPS_SpecificHumidity_IsbL-1015_LatLon0.15_PT132H.grib2 2026-04-11 16:46 1.4M
20260411T12Z_MSC_GDPS_SpecificHumidity_Sfc_LatLon0.15_PT132H.grib2 2026-04-11 16:46 620K
20260411T12Z_MSC_GDPS_Thickness_IsbL-0850to0700_LatLon0.15_PT132H.grib2 2026-04-11 16:46 465K
20260411T12Z_MSC_GDPS_Thickness_IsbL-1000to0500_LatLon0.15_PT132H.grib2 2026-04-11 16:46 372K
20260411T12Z_MSC_GDPS_Thickness_IsbL-1000to0850_LatLon0.15_PT132H.grib2 2026-04-11 16:46 488K
20260411T12Z_MSC_GDPS_TotalCloudCover_Sfc_LatLon0.15_PT132H.grib2 2026-04-11 16:46 831K
20260411T12Z_MSC_GDPS_TotalTotalsIndex_Sfc_LatLon0.15_PT132H.grib2 2026-04-11 16:46 6.2M
20260411T12Z_MSC_GDPS_UVIndex-ClearSky_Sfc_LatLon0.15_PT132H.grib2 2026-04-11 17:06 1.0M
20260411T12Z_MSC_GDPS_UVIndex_Sfc_LatLon0.15_PT132H.grib2 2026-04-11 17:06 1.5M
20260411T12Z_MSC_GDPS_UpwardLongwaveRadiationFlux_NTAtm_LatLon0.15_PT132H.grib2 2026-04-11 16:46 1.1M
20260411T12Z_MSC_GDPS_VerticalVelocity_IsbL-0200_LatLon0.15_PT132H.grib2 2026-04-11 16:46 1.1M
20260411T12Z_MSC_GDPS_VerticalVelocity_IsbL-0250_LatLon0.15_PT132H.grib2 2026-04-11 16:46 1.0M
20260411T12Z_MSC_GDPS_VerticalVelocity_IsbL-0500_LatLon0.15_PT132H.grib2 2026-04-11 16:46 1.0M
20260411T12Z_MSC_GDPS_VerticalVelocity_IsbL-0600_LatLon0.15_PT132H.grib2 2026-04-11 16:46 1.0M
20260411T12Z_MSC_GDPS_VerticalVelocity_IsbL-0700_LatLon0.15_PT132H.grib2 2026-04-11 16:46 1.1M
20260411T12Z_MSC_GDPS_VerticalVelocity_IsbL-0850_LatLon0.15_PT132H.grib2 2026-04-11 16:46 1.6M
20260411T12Z_MSC_GDPS_WindChill_Sfc_LatLon0.15_PT132H.grib2 2026-04-11 16:46 5.4M
20260411T12Z_MSC_GDPS_WindDir_AGL-10m_LatLon0.15_PT132H.grib2 2026-04-11 16:46 1.3M
20260411T12Z_MSC_GDPS_WindDir_AGL-120m_LatLon0.15_PT132H.grib2 2026-04-11 16:46 1.4M
20260411T12Z_MSC_GDPS_WindDir_AGL-40m_LatLon0.15_PT132H.grib2 2026-04-11 16:46 1.4M
20260411T12Z_MSC_GDPS_WindDir_AGL-80m_LatLon0.15_PT132H.grib2 2026-04-11 16:46 1.4M
20260411T12Z_MSC_GDPS_WindDir_IsbL-0001_LatLon0.15_PT132H.grib2 2026-04-11 16:46 633K
20260411T12Z_MSC_GDPS_WindDir_IsbL-0005_LatLon0.15_PT132H.grib2 2026-04-11 16:46 787K
20260411T12Z_MSC_GDPS_WindDir_IsbL-0010_LatLon0.15_PT132H.grib2 2026-04-11 16:46 848K
20260411T12Z_MSC_GDPS_WindDir_IsbL-0020_LatLon0.15_PT132H.grib2 2026-04-11 16:46 903K
20260411T12Z_MSC_GDPS_WindDir_IsbL-0030_LatLon0.15_PT132H.grib2 2026-04-11 16:46 877K
20260411T12Z_MSC_GDPS_WindDir_IsbL-0050_LatLon0.15_PT132H.grib2 2026-04-11 16:46 937K
20260411T12Z_MSC_GDPS_WindDir_IsbL-0100_LatLon0.15_PT132H.grib2 2026-04-11 16:46 1.0M
20260411T12Z_MSC_GDPS_WindDir_IsbL-0150_LatLon0.15_PT132H.grib2 2026-04-11 16:46 1.0M
20260411T12Z_MSC_GDPS_WindDir_IsbL-0175_LatLon0.15_PT132H.grib2 2026-04-11 16:46 1.0M
20260411T12Z_MSC_GDPS_WindDir_IsbL-0200_LatLon0.15_PT132H.grib2 2026-04-11 16:46 1.1M
20260411T12Z_MSC_GDPS_WindDir_IsbL-0225_LatLon0.15_PT132H.grib2 2026-04-11 16:46 1.1M
20260411T12Z_MSC_GDPS_WindDir_IsbL-0250_LatLon0.15_PT132H.grib2 2026-04-11 16:46 1.1M
20260411T12Z_MSC_GDPS_WindDir_IsbL-0275_LatLon0.15_PT132H.grib2 2026-04-11 16:46 1.2M
20260411T12Z_MSC_GDPS_WindDir_IsbL-0300_LatLon0.15_PT132H.grib2 2026-04-11 16:46 1.2M
20260411T12Z_MSC_GDPS_WindDir_IsbL-0350_LatLon0.15_PT132H.grib2 2026-04-11 16:46 1.2M
20260411T12Z_MSC_GDPS_WindDir_IsbL-0400_LatLon0.15_PT132H.grib2 2026-04-11 16:46 1.3M
20260411T12Z_MSC_GDPS_WindDir_IsbL-0450_LatLon0.15_PT132H.grib2 2026-04-11 16:46 1.3M
20260411T12Z_MSC_GDPS_WindDir_IsbL-0500_LatLon0.15_PT132H.grib2 2026-04-11 16:46 1.4M
20260411T12Z_MSC_GDPS_WindDir_IsbL-0550_LatLon0.15_PT132H.grib2 2026-04-11 16:46 1.4M
20260411T12Z_MSC_GDPS_WindDir_IsbL-0600_LatLon0.15_PT132H.grib2 2026-04-11 16:46 1.5M
20260411T12Z_MSC_GDPS_WindDir_IsbL-0650_LatLon0.15_PT132H.grib2 2026-04-11 16:46 1.5M
20260411T12Z_MSC_GDPS_WindDir_IsbL-0700_LatLon0.15_PT132H.grib2 2026-04-11 16:46 1.6M
20260411T12Z_MSC_GDPS_WindDir_IsbL-0750_LatLon0.15_PT132H.grib2 2026-04-11 16:46 1.7M
20260411T12Z_MSC_GDPS_WindDir_IsbL-0800_LatLon0.15_PT132H.grib2 2026-04-11 16:46 1.8M
20260411T12Z_MSC_GDPS_WindDir_IsbL-0850_LatLon0.15_PT132H.grib2 2026-04-11 16:46 1.9M
20260411T12Z_MSC_GDPS_WindDir_IsbL-0875_LatLon0.15_PT132H.grib2 2026-04-11 16:46 2.0M
20260411T12Z_MSC_GDPS_WindDir_IsbL-0900_LatLon0.15_PT132H.grib2 2026-04-11 16:46 2.0M
20260411T12Z_MSC_GDPS_WindDir_IsbL-0925_LatLon0.15_PT132H.grib2 2026-04-11 16:46 2.0M
20260411T12Z_MSC_GDPS_WindDir_IsbL-0950_LatLon0.15_PT132H.grib2 2026-04-11 16:46 2.0M
20260411T12Z_MSC_GDPS_WindDir_IsbL-0970_LatLon0.15_PT132H.grib2 2026-04-11 16:46 2.0M
20260411T12Z_MSC_GDPS_WindDir_IsbL-0985_LatLon0.15_PT132H.grib2 2026-04-11 16:46 2.1M
20260411T12Z_MSC_GDPS_WindDir_IsbL-1000_LatLon0.15_PT132H.grib2 2026-04-11 16:46 2.1M
20260411T12Z_MSC_GDPS_WindDir_IsbL-1015_LatLon0.15_PT132H.grib2 2026-04-11 16:46 2.1M
20260411T12Z_MSC_GDPS_WindGust-Max_AGL-10m_LatLon0.15_PT132H.grib2 2026-04-11 16:46 2.2M
20260411T12Z_MSC_GDPS_WindGust-Min_AGL-10m_LatLon0.15_PT132H.grib2 2026-04-11 16:46 2.2M
20260411T12Z_MSC_GDPS_WindGust_AGL-10m_LatLon0.15_PT132H.grib2 2026-04-11 16:46 2.2M
20260411T12Z_MSC_GDPS_WindSpeed_AGL-10m_LatLon0.15_PT132H.grib2 2026-04-11 16:46 1.1M
20260411T12Z_MSC_GDPS_WindSpeed_AGL-120m_LatLon0.15_PT132H.grib2 2026-04-11 16:46 1.2M
20260411T12Z_MSC_GDPS_WindSpeed_AGL-40m_LatLon0.15_PT132H.grib2 2026-04-11 16:46 1.2M
20260411T12Z_MSC_GDPS_WindSpeed_AGL-80m_LatLon0.15_PT132H.grib2 2026-04-11 16:46 1.2M
20260411T12Z_MSC_GDPS_WindSpeed_IsbL-0001_LatLon0.15_PT132H.grib2 2026-04-11 16:46 628K
20260411T12Z_MSC_GDPS_WindSpeed_IsbL-0005_LatLon0.15_PT132H.grib2 2026-04-11 16:46 679K
20260411T12Z_MSC_GDPS_WindSpeed_IsbL-0010_LatLon0.15_PT132H.grib2 2026-04-11 16:46 699K
20260411T12Z_MSC_GDPS_WindSpeed_IsbL-0020_LatLon0.15_PT132H.grib2 2026-04-11 16:46 663K
20260411T12Z_MSC_GDPS_WindSpeed_IsbL-0030_LatLon0.15_PT132H.grib2 2026-04-11 16:46 852K
20260411T12Z_MSC_GDPS_WindSpeed_IsbL-0050_LatLon0.15_PT132H.grib2 2026-04-11 16:46 911K
20260411T12Z_MSC_GDPS_WindSpeed_IsbL-0100_LatLon0.15_PT132H.grib2 2026-04-11 16:46 1.1M
20260411T12Z_MSC_GDPS_WindSpeed_IsbL-0150_LatLon0.15_PT132H.grib2 2026-04-11 16:46 1.0M
20260411T12Z_MSC_GDPS_WindSpeed_IsbL-0175_LatLon0.15_PT132H.grib2 2026-04-11 16:46 1.0M
20260411T12Z_MSC_GDPS_WindSpeed_IsbL-0200_LatLon0.15_PT132H.grib2 2026-04-11 16:46 1.0M
20260411T12Z_MSC_GDPS_WindSpeed_IsbL-0225_LatLon0.15_PT132H.grib2 2026-04-11 16:46 1.1M
20260411T12Z_MSC_GDPS_WindSpeed_IsbL-0250_LatLon0.15_PT132H.grib2 2026-04-11 16:46 1.1M
20260411T12Z_MSC_GDPS_WindSpeed_IsbL-0275_LatLon0.15_PT132H.grib2 2026-04-11 16:46 1.1M
20260411T12Z_MSC_GDPS_WindSpeed_IsbL-0300_LatLon0.15_PT132H.grib2 2026-04-11 16:46 1.1M
20260411T12Z_MSC_GDPS_WindSpeed_IsbL-0350_LatLon0.15_PT132H.grib2 2026-04-11 16:46 1.1M
20260411T12Z_MSC_GDPS_WindSpeed_IsbL-0400_LatLon0.15_PT132H.grib2 2026-04-11 16:46 1.1M
20260411T12Z_MSC_GDPS_WindSpeed_IsbL-0450_LatLon0.15_PT132H.grib2 2026-04-11 16:46 1.1M
20260411T12Z_MSC_GDPS_WindSpeed_IsbL-0500_LatLon0.15_PT132H.grib2 2026-04-11 16:46 1.1M
20260411T12Z_MSC_GDPS_WindSpeed_IsbL-0550_LatLon0.15_PT132H.grib2 2026-04-11 16:46 1.1M
20260411T12Z_MSC_GDPS_WindSpeed_IsbL-0600_LatLon0.15_PT132H.grib2 2026-04-11 16:46 1.1M
20260411T12Z_MSC_GDPS_WindSpeed_IsbL-0650_LatLon0.15_PT132H.grib2 2026-04-11 16:46 1.4M
20260411T12Z_MSC_GDPS_WindSpeed_IsbL-0700_LatLon0.15_PT132H.grib2 2026-04-11 16:46 1.5M
20260411T12Z_MSC_GDPS_WindSpeed_IsbL-0750_LatLon0.15_PT132H.grib2 2026-04-11 16:46 1.5M
20260411T12Z_MSC_GDPS_WindSpeed_IsbL-0800_LatLon0.15_PT132H.grib2 2026-04-11 16:46 1.6M
20260411T12Z_MSC_GDPS_WindSpeed_IsbL-0850_LatLon0.15_PT132H.grib2 2026-04-11 16:46 1.7M
20260411T12Z_MSC_GDPS_WindSpeed_IsbL-0875_LatLon0.15_PT132H.grib2 2026-04-11 16:46 1.8M
20260411T12Z_MSC_GDPS_WindSpeed_IsbL-0900_LatLon0.15_PT132H.grib2 2026-04-11 16:46 1.8M
20260411T12Z_MSC_GDPS_WindSpeed_IsbL-0925_LatLon0.15_PT132H.grib2 2026-04-11 16:46 1.9M
20260411T12Z_MSC_GDPS_WindSpeed_IsbL-0950_LatLon0.15_PT132H.grib2 2026-04-11 16:46 1.9M
20260411T12Z_MSC_GDPS_WindSpeed_IsbL-0970_LatLon0.15_PT132H.grib2 2026-04-11 16:46 1.9M
20260411T12Z_MSC_GDPS_WindSpeed_IsbL-0985_LatLon0.15_PT132H.grib2 2026-04-11 16:46 1.8M
20260411T12Z_MSC_GDPS_WindSpeed_IsbL-1000_LatLon0.15_PT132H.grib2 2026-04-11 16:46 1.8M
20260411T12Z_MSC_GDPS_WindSpeed_IsbL-1015_LatLon0.15_PT132H.grib2 2026-04-11 16:46 1.8M
20260411T12Z_MSC_GDPS_WindU_AGL-10m_LatLon0.15_PT132H.grib2 2026-04-11 16:46 1.3M
20260411T12Z_MSC_GDPS_WindU_AGL-120m_LatLon0.15_PT132H.grib2 2026-04-11 16:46 1.0M
20260411T12Z_MSC_GDPS_WindU_AGL-40m_LatLon0.15_PT132H.grib2 2026-04-11 16:46 967K
20260411T12Z_MSC_GDPS_WindU_AGL-80m_LatLon0.15_PT132H.grib2 2026-04-11 16:46 1.0M
20260411T12Z_MSC_GDPS_WindU_IsbL-0001_LatLon0.15_PT132H.grib2 2026-04-11 16:46 493K
20260411T12Z_MSC_GDPS_WindU_IsbL-0005_LatLon0.15_PT132H.grib2 2026-04-11 16:46 678K
20260411T12Z_MSC_GDPS_WindU_IsbL-0010_LatLon0.15_PT132H.grib2 2026-04-11 16:46 692K
20260411T12Z_MSC_GDPS_WindU_IsbL-0020_LatLon0.15_PT132H.grib2 2026-04-11 16:46 730K
20260411T12Z_MSC_GDPS_WindU_IsbL-0030_LatLon0.15_PT132H.grib2 2026-04-11 16:46 731K
20260411T12Z_MSC_GDPS_WindU_IsbL-0050_LatLon0.15_PT132H.grib2 2026-04-11 16:46 772K
20260411T12Z_MSC_GDPS_WindU_IsbL-0100_LatLon0.15_PT132H.grib2 2026-04-11 16:46 926K
20260411T12Z_MSC_GDPS_WindU_IsbL-0150_LatLon0.15_PT132H.grib2 2026-04-11 16:46 1.0M
20260411T12Z_MSC_GDPS_WindU_IsbL-0175_LatLon0.15_PT132H.grib2 2026-04-11 16:46 804K
20260411T12Z_MSC_GDPS_WindU_IsbL-0200_LatLon0.15_PT132H.grib2 2026-04-11 16:46 1.0M
20260411T12Z_MSC_GDPS_WindU_IsbL-0225_LatLon0.15_PT132H.grib2 2026-04-11 16:46 1.1M
20260411T12Z_MSC_GDPS_WindU_IsbL-0250_LatLon0.15_PT132H.grib2 2026-04-11 16:46 1.1M
20260411T12Z_MSC_GDPS_WindU_IsbL-0275_LatLon0.15_PT132H.grib2 2026-04-11 16:46 886K
20260411T12Z_MSC_GDPS_WindU_IsbL-0300_LatLon0.15_PT132H.grib2 2026-04-11 16:46 877K
20260411T12Z_MSC_GDPS_WindU_IsbL-0350_LatLon0.15_PT132H.grib2 2026-04-11 16:46 892K
20260411T12Z_MSC_GDPS_WindU_IsbL-0400_LatLon0.15_PT132H.grib2 2026-04-11 16:46 1.1M
20260411T12Z_MSC_GDPS_WindU_IsbL-0450_LatLon0.15_PT132H.grib2 2026-04-11 16:46 1.1M
20260411T12Z_MSC_GDPS_WindU_IsbL-0500_LatLon0.15_PT132H.grib2 2026-04-11 16:46 1.1M
20260411T12Z_MSC_GDPS_WindU_IsbL-0550_LatLon0.15_PT132H.grib2 2026-04-11 16:46 1.1M
20260411T12Z_MSC_GDPS_WindU_IsbL-0600_LatLon0.15_PT132H.grib2 2026-04-11 16:46 1.1M
20260411T12Z_MSC_GDPS_WindU_IsbL-0650_LatLon0.15_PT132H.grib2 2026-04-11 16:46 1.2M
20260411T12Z_MSC_GDPS_WindU_IsbL-0700_LatLon0.15_PT132H.grib2 2026-04-11 16:46 1.2M
20260411T12Z_MSC_GDPS_WindU_IsbL-0750_LatLon0.15_PT132H.grib2 2026-04-11 16:46 1.3M
20260411T12Z_MSC_GDPS_WindU_IsbL-0800_LatLon0.15_PT132H.grib2 2026-04-11 16:46 1.3M
20260411T12Z_MSC_GDPS_WindU_IsbL-0850_LatLon0.15_PT132H.grib2 2026-04-11 16:46 1.4M
20260411T12Z_MSC_GDPS_WindU_IsbL-0875_LatLon0.15_PT132H.grib2 2026-04-11 16:46 1.4M
20260411T12Z_MSC_GDPS_WindU_IsbL-0900_LatLon0.15_PT132H.grib2 2026-04-11 16:46 1.5M
20260411T12Z_MSC_GDPS_WindU_IsbL-0925_LatLon0.15_PT132H.grib2 2026-04-11 16:46 1.5M
20260411T12Z_MSC_GDPS_WindU_IsbL-0950_LatLon0.15_PT132H.grib2 2026-04-11 16:46 1.4M
20260411T12Z_MSC_GDPS_WindU_IsbL-0970_LatLon0.15_PT132H.grib2 2026-04-11 16:46 1.4M
20260411T12Z_MSC_GDPS_WindU_IsbL-0985_LatLon0.15_PT132H.grib2 2026-04-11 16:46 1.4M
20260411T12Z_MSC_GDPS_WindU_IsbL-1000_LatLon0.15_PT132H.grib2 2026-04-11 16:46 1.4M
20260411T12Z_MSC_GDPS_WindU_IsbL-1015_LatLon0.15_PT132H.grib2 2026-04-11 16:46 1.3M
20260411T12Z_MSC_GDPS_WindV_AGL-10m_LatLon0.15_PT132H.grib2 2026-04-11 16:46 1.3M
20260411T12Z_MSC_GDPS_WindV_AGL-120m_LatLon0.15_PT132H.grib2 2026-04-11 16:46 1.0M
20260411T12Z_MSC_GDPS_WindV_AGL-40m_LatLon0.15_PT132H.grib2 2026-04-11 16:46 970K
20260411T12Z_MSC_GDPS_WindV_AGL-80m_LatLon0.15_PT132H.grib2 2026-04-11 16:46 1.0M
20260411T12Z_MSC_GDPS_WindV_IsbL-0001_LatLon0.15_PT132H.grib2 2026-04-11 16:46 754K
20260411T12Z_MSC_GDPS_WindV_IsbL-0005_LatLon0.15_PT132H.grib2 2026-04-11 16:46 766K
20260411T12Z_MSC_GDPS_WindV_IsbL-0010_LatLon0.15_PT132H.grib2 2026-04-11 16:46 797K
20260411T12Z_MSC_GDPS_WindV_IsbL-0020_LatLon0.15_PT132H.grib2 2026-04-11 16:46 851K
20260411T12Z_MSC_GDPS_WindV_IsbL-0030_LatLon0.15_PT132H.grib2 2026-04-11 16:46 851K
20260411T12Z_MSC_GDPS_WindV_IsbL-0050_LatLon0.15_PT132H.grib2 2026-04-11 16:46 902K
20260411T12Z_MSC_GDPS_WindV_IsbL-0100_LatLon0.15_PT132H.grib2 2026-04-11 16:46 854K
20260411T12Z_MSC_GDPS_WindV_IsbL-0150_LatLon0.15_PT132H.grib2 2026-04-11 16:46 1.0M
20260411T12Z_MSC_GDPS_WindV_IsbL-0175_LatLon0.15_PT132H.grib2 2026-04-11 16:46 1.0M
20260411T12Z_MSC_GDPS_WindV_IsbL-0200_LatLon0.15_PT132H.grib2 2026-04-11 16:46 1.0M
20260411T12Z_MSC_GDPS_WindV_IsbL-0225_LatLon0.15_PT132H.grib2 2026-04-11 16:46 846K
20260411T12Z_MSC_GDPS_WindV_IsbL-0250_LatLon0.15_PT132H.grib2 2026-04-11 16:46 850K
20260411T12Z_MSC_GDPS_WindV_IsbL-0275_LatLon0.15_PT132H.grib2 2026-04-11 16:46 879K
20260411T12Z_MSC_GDPS_WindV_IsbL-0300_LatLon0.15_PT132H.grib2 2026-04-11 16:46 927K
20260411T12Z_MSC_GDPS_WindV_IsbL-0350_LatLon0.15_PT132H.grib2 2026-04-11 16:46 940K
20260411T12Z_MSC_GDPS_WindV_IsbL-0400_LatLon0.15_PT132H.grib2 2026-04-11 16:46 879K
20260411T12Z_MSC_GDPS_WindV_IsbL-0450_LatLon0.15_PT132H.grib2 2026-04-11 16:46 1.1M
20260411T12Z_MSC_GDPS_WindV_IsbL-0500_LatLon0.15_PT132H.grib2 2026-04-11 16:46 1.1M
20260411T12Z_MSC_GDPS_WindV_IsbL-0550_LatLon0.15_PT132H.grib2 2026-04-11 16:46 1.1M
20260411T12Z_MSC_GDPS_WindV_IsbL-0600_LatLon0.15_PT132H.grib2 2026-04-11 16:46 1.1M
20260411T12Z_MSC_GDPS_WindV_IsbL-0650_LatLon0.15_PT132H.grib2 2026-04-11 16:46 1.2M
20260411T12Z_MSC_GDPS_WindV_IsbL-0700_LatLon0.15_PT132H.grib2 2026-04-11 16:46 1.2M
20260411T12Z_MSC_GDPS_WindV_IsbL-0750_LatLon0.15_PT132H.grib2 2026-04-11 16:46 1.2M
20260411T12Z_MSC_GDPS_WindV_IsbL-0800_LatLon0.15_PT132H.grib2 2026-04-11 16:46 1.3M
20260411T12Z_MSC_GDPS_WindV_IsbL-0850_LatLon0.15_PT132H.grib2 2026-04-11 16:46 1.4M
20260411T12Z_MSC_GDPS_WindV_IsbL-0875_LatLon0.15_PT132H.grib2 2026-04-11 16:46 1.4M
20260411T12Z_MSC_GDPS_WindV_IsbL-0900_LatLon0.15_PT132H.grib2 2026-04-11 16:46 1.4M
20260411T12Z_MSC_GDPS_WindV_IsbL-0925_LatLon0.15_PT132H.grib2 2026-04-11 16:46 1.4M
20260411T12Z_MSC_GDPS_WindV_IsbL-0950_LatLon0.15_PT132H.grib2 2026-04-11 16:46 1.4M
20260411T12Z_MSC_GDPS_WindV_IsbL-0970_LatLon0.15_PT132H.grib2 2026-04-11 16:46 1.4M
20260411T12Z_MSC_GDPS_WindV_IsbL-0985_LatLon0.15_PT132H.grib2 2026-04-11 16:46 1.4M
20260411T12Z_MSC_GDPS_WindV_IsbL-1000_LatLon0.15_PT132H.grib2 2026-04-11 16:46 1.4M
20260411T12Z_MSC_GDPS_WindV_IsbL-1015_LatLon0.15_PT132H.grib2 2026-04-11 16:46 1.3M